Weather Roundup
Issued by NWS Chicago, IL

Home | Current Version | Previous Version | Graphics & Text | Print | Product List | Glossary On
Versions: 1 2 3 4 5 6 7 8 9 10 11 12 13 14 15 16 17 18 19 20 21 22 23 24 25 26 27 28 29 30 31 32 33 34 35 36 37 38 39 40 41 42 43 44 45 46 47 48 49 50
000
NZUS59 KLOT 041621
HRRLOT

CHICAGO AREA WEATHER ROUNDUP
NATIONAL WEATHER SERVICE CHICAGO/ROMEOVILLE IL
1100 AM CDT SAT JUL 04 2015

NOTE: "FAIR" INDICATES FEW OR NO CLOUDS BELOW 12,000 FEET WITH NO
SIGNIFICANT WEATHER AND/OR OBSTRUCTIONS TO VISIBILITY.

* THESE STATIONS ARE NOT UNDER NWS QUALITY CONTROL. THEY ALSO MAY NOT
  REPORT WEATHER SUCH AS PRECIPITATION OR FOG.

ILZ005-006-012>014-019>023-041700-
NORTHEAST ILLINOIS

CITY           SKY/WX    TMP DP  RH WIND       PRES   REMARKS
OHARE          SUNNY     76  55  48 W3        30.00S
MIDWAY         SUNNY     78  57  48 N6        30.00S
AURORA         SUNNY     75  56  51 VRB3      30.02S
LANSING*       SUNNY     75  54  47 CALM      30.01S
JOLIET*        SUNNY     77  61  57 SW5       30.02R
WAUKEGAN       SUNNY     75  59  57 CALM      30.00R
DUPAGE AIRPORT SUNNY     76  57  51 NW3       30.01R
WHEELING       SUNNY     76  56  49 NE3       30.02R
KANKAKEE*      SUNNY     76  61  59 CALM      30.03R
MORRIS*        SUNNY     74  58  56 SW5       30.01R
LEWIS AIRPORT* SUNNY     76  56  50 W5        30.02R
NORTHERLY IS     N/A     71  61  70 E2          N/A
$$

WIZ051-052-058>065-066-070>072-041700-
SOUTHEAST WISCONSIN

CITY           SKY/WX    TMP DP  RH WIND       PRES   REMARKS
MILWAUKEE      MOSUNNY   78  59  51 VRB6      29.99R
KENOSHA*       SUNNY     76  60  57 W6        30.00R
RACINE*        SUNNY     76  58  53 VRB3      30.01R
BURLINGTON     SUNNY     74  58  58 CALM      30.00R
WAUKESHA       SUNNY     73  57  56 NW7       30.00S
WEST BEND      SUNNY     75  57  53 W3        29.99S
$$

INZ001>003-010>013-019-020-041700-
NORTHWEST INDIANA

CITY           SKY/WX    TMP DP  RH WIND       PRES   REMARKS
GARY*          MOSUNNY  N/A N/A N/A CALM      30.02R
MICHIGAN CITY* NOT AVBL
RENSSELAER*    NOT AVBL
VALPARAISO     SUNNY     74  60  61 CALM      30.03R
$$

LMZ740>746-041700-
SOUTHERN LAKE MICHIGAN

STATION/POSITION TIME  SKY/WX   TEMP WIND        PRES    VSBY
                                AIR  DIR/SP/G
                 (UTC)          (F)  (DEG/KT/KT) (MB)    (MI)
HARRISON CRIB    1600            67  110/  7/  8   N/A
BURNHAM HARBOR   1600            70   90/  4/  5   N/A
CALUMET HARBOR   1500            70   40/  4/  5   N/A
BURNS HARBOR     1500            68  290/  3/  3 1016.9R
MICHIGAN CITY    1600            68  250/  4/  4   N/A
$$

ABBREVIATIONS USED IN REMARKS
   TC - TEMPERATURE IN CELSIUS
  WCI - WIND CHILL INDEX
   HX - HEAT INDEX
  VSB - VISIBILITY
$$


USA.gov is the U.S. government's official web portal to all federal, state and local government web resources and services.